When you browse on this site, cookies collect data to enhance your experience and personalize the content and advertising you see.
Visit our Privacy Policy to learn more. By continuing to use the site, you agree to this use of cookies and data.
  • In Hungary
  • List of Countries
  • For 7 days
  • Water Temperature
  • Satellite Maps
  • Weather Map
  • News
  • Weather Widgets
  • user-avatar
    Login

    Hourly Weather Frankfurt am Mein

    Today, 22 April, Monday

    Time Temperature Precipitation Wind Pressure Humidity
    00:00 +10°C° 0 mm 2 mps 721 mmHg 67%
    01:00 +10°C° 0 mm 2 mps 720 mmHg 64%
    02:00 +10°C° 0 mm 2 mps 720 mmHg 65%
    03:00 +9°C° 0 mm 2 mps 720 mmHg 67%
    04:00 +9°C° 0 mm 1 mps 719 mmHg 68%
    05:00 +9°C° 0 mm 2 mps 719 mmHg 67%
    06:00 +9°C° 0 mm 2 mps 719 mmHg 66%
    07:00 +10°C° 0 mm 2 mps 719 mmHg 63%
    08:00 +12°C° 0 mm 3 mps 719 mmHg 57%
    09:00 +14°C° 0 mm 3 mps 718 mmHg 52%
    10:00 +17°C° 0 mm 4 mps 718 mmHg 46%
    11:00 +19°C° 0 mm 4 mps 718 mmHg 43%
    12:00 +20°C° 0 mm 4 mps 718 mmHg 39%
    13:00 +21°C° 0 mm 5 mps 717 mmHg 36%
    14:00 +21°C° 0 mm 5 mps 717 mmHg 37%
    15:00 +21°C° 0 mm 5 mps 716 mmHg 38%
    16:00 +21°C° 0 mm 5 mps 715 mmHg 39%
    17:00 +20°C° 0 mm 5 mps 715 mmHg 44%
    18:00 +17°C° 0 mm 5 mps 715 mmHg 49%
    19:00 +15°C° 0 mm 5 mps 714 mmHg 55%
    20:00 +14°C° 0 mm 5 mps 714 mmHg 55%
    21:00 +13°C° 0 mm 5 mps 714 mmHg 56%
    22:00 +12°C° 0 mm 5 mps 714 mmHg 56%
    23:00 +11°C° 0 mm 4 mps 714 mmHg 59%

    Tomorrow, 23 April, Tuesday

    Time Temperature Precipitation Wind Pressure Humidity
    00:00 +10°C° 0 mm 4 mps 713 mmHg 61%
    01:00 +8°C° 0 mm 4 mps 713 mmHg 63%
    02:00 +8°C° 0 mm 4 mps 712 mmHg 65%
    03:00 +7°C° 0 mm 4 mps 712 mmHg 67%
    04:00 +7°C° 0 mm 4 mps 711 mmHg 69%
    05:00 +7°C° 0 mm 4 mps 711 mmHg 71%
    06:00 +8°C° 0 mm 4 mps 711 mmHg 73%
    07:00 +8°C° 0 mm 4 mps 711 mmHg 74%
    08:00 +10°C° 0 mm 5 mps 711 mmHg 70%
    09:00 +13°C° 0 mm 5 mps 711 mmHg 66%
    10:00 +14°C° 0 mm 5 mps 710 mmHg 62%
    11:00 +16°C° 0 mm 5 mps 710 mmHg 58%
    12:00 +17°C° 0 mm 5 mps 710 mmHg 54%
    13:00 +19°C° 0 mm 5 mps 710 mmHg 51%
    14:00 +20°C° 0 mm 4 mps 710 mmHg 50%
    15:00 +20°C° 0 mm 4 mps 709 mmHg 50%
    16:00 +20°C° 0 mm 3 mps 709 mmHg 49%
    17:00 +19°C° 0 mm 3 mps 709 mmHg 54%
    18:00 +18°C° 0 mm 2 mps 708 mmHg 59%
    19:00 +18°C° 0 mm 1 mps 708 mmHg 65%
    20:00 +16°C° 0 mm 1 mps 708 mmHg 69%
    21:00 +14°C° 0 mm 1 mps 708 mmHg 74%
    22:00 +13°C° 0 mm 1 mps 708 mmHg 78%
    23:00 +13°C° 0 mm 1 mps 709 mmHg 79%

    Day after tomorrow, 24 April, Wednesday

    Time Temperature Precipitation Wind Pressure Humidity
    00:00 +13°C° 0 mm 1 mps 709 mmHg 79%
    01:00 +13°C° 0 mm 1 mps 710 mmHg 80%
    02:00 +13°C° 0.1 mm 1 mps 710 mmHg 82%
    03:00 +13°C° 0.1 mm 1 mps 710 mmHg 85%
    04:00 +12°C° 0.1 mm 1 mps 710 mmHg 87%
    05:00 +13°C° 0.1 mm 2 mps 711 mmHg 86%
    06:00 +13°C° 0.1 mm 2 mps 712 mmHg 85%
    07:00 +14°C° 0.1 mm 2 mps 712 mmHg 84%
    08:00 +15°C° 0.1 mm 2 mps 713 mmHg 77%
    09:00 +16°C° 0.1 mm 2 mps 713 mmHg 71%
    10:00 +16°C° 0.1 mm 2 mps 714 mmHg 64%
    11:00 +17°C° 0.1 mm 3 mps 714 mmHg 61%
    12:00 +18°C° 0.1 mm 3 mps 714 mmHg 57%
    13:00 +19°C° 0.1 mm 4 mps 714 mmHg 54%
    14:00 +19°C° 0.3 mm 4 mps 714 mmHg 56%
    15:00 +18°C° 0.3 mm 3 mps 714 mmHg 58%
    16:00 +17°C° 0.3 mm 3 mps 714 mmHg 60%
    17:00 +14°C° 0.5 mm 4 mps 715 mmHg 68%
    18:00 +12°C° 0.5 mm 4 mps 715 mmHg 76%
    19:00 +10°C° 0.5 mm 4 mps 716 mmHg 84%
    20:00 +10°C° 0.4 mm 3 mps 716 mmHg 85%
    21:00 +9°C° 0.4 mm 2 mps 717 mmHg 87%
    22:00 +10°C° 0.4 mm 1 mps 717 mmHg 88%
    23:00 +9°C° 0 mm 1 mps 717 mmHg 89%

    25 April, Thursday

    Time Temperature Precipitation Wind Pressure Humidity
    00:00 +8°C° 0 mm 2 mps 717 mmHg 91%
    01:00 +7°C° 0 mm 2 mps 717 mmHg 92%
    02:00 +8°C° 0 mm 1 mps 717 mmHg 92%
    03:00 +8°C° 0 mm 1 mps 717 mmHg 92%
    04:00 +7°C° 0 mm 1 mps 717 mmHg 92%
    05:00 +8°C° 0 mm 1 mps 717 mmHg 90%
    06:00 +8°C° 0 mm 2 mps 717 mmHg 87%
    07:00 +8°C° 0 mm 2 mps 717 mmHg 85%
    08:00 +12°C° 0 mm 2 mps 717 mmHg 75%
    09:00 +13°C° 0 mm 3 mps 717 mmHg 66%
    10:00 +16°C° 0 mm 3 mps 718 mmHg 56%
    11:00 +17°C° 0 mm 3 mps 718 mmHg 53%
    12:00 +18°C° 0 mm 3 mps 718 mmHg 50%
    13:00 +20°C° 0 mm 3 mps 718 mmHg 47%
    14:00 +20°C° 0 mm 3 mps 718 mmHg 45%
    15:00 +20°C° 0 mm 3 mps 718 mmHg 44%
    16:00 +20°C° 0 mm 3 mps 718 mmHg 42%
    17:00 +18°C° 0 mm 3 mps 718 mmHg 49%
    18:00 +16°C° 0 mm 3 mps 718 mmHg 57%
    19:00 +15°C° 0 mm 2 mps 718 mmHg 64%
    20:00 +14°C° 0 mm 2 mps 718 mmHg 66%
    21:00 +12°C° 0 mm 2 mps 719 mmHg 68%
    22:00 +10°C° 0 mm 2 mps 719 mmHg 70%
    23:00 +9°C° 0.1 mm 3 mps 719 mmHg 73%

    26 April, Friday

    Time Temperature Precipitation Wind Pressure Humidity
    00:00 +9°C° 0.1 mm 3 mps 719 mmHg 77%
    01:00 +8°C° 0.1 mm 3 mps 720 mmHg 80%
    02:00 +8°C° 0.1 mm 3 mps 720 mmHg 82%
    03:00 +7°C° 0.1 mm 3 mps 720 mmHg 84%
    04:00 +7°C° 0.1 mm 2 mps 720 mmHg 86%
    05:00 +7°C° 0 mm 2 mps 720 mmHg 86%
    06:00 +7°C° 0 mm 2 mps 721 mmHg 85%
    07:00 +8°C° 0 mm 2 mps 721 mmHg 84%
    08:00 +8°C° 0.1 mm 2 mps 722 mmHg 80%
    09:00 +9°C° 0.1 mm 3 mps 722 mmHg 76%
    10:00 +10°C° 0.1 mm 3 mps 722 mmHg 72%
    11:00 +10°C° 0 mm 3 mps 722 mmHg 66%
    12:00 +11°C° 0 mm 3 mps 722 mmHg 60%
    13:00 +12°C° 0 mm 3 mps 722 mmHg 54%
    14:00 +13°C° 0.1 mm 4 mps 722 mmHg 55%
    15:00 +13°C° 0.1 mm 4 mps 722 mmHg 56%
    16:00 +13°C° 0.1 mm 4 mps 722 mmHg 57%
    17:00 +12°C° 0 mm 3 mps 722 mmHg 61%
    18:00 +11°C° 0 mm 3 mps 722 mmHg 65%
    19:00 +10°C° 0 mm 2 mps 722 mmHg 70%
    20:00 +10°C° 0 mm 2 mps 723 mmHg 74%
    21:00 +9°C° 0 mm 2 mps 723 mmHg 78%
    22:00 +8°C° 0 mm 3 mps 723 mmHg 82%
    23:00 +8°C° 0 mm 3 mps 723 mmHg 85%

    27 April, Saturday

    Time Temperature Precipitation Wind Pressure Humidity
    00:00 +7°C° 0 mm 3 mps 723 mmHg 88%
    01:00 +6°C° 0 mm 2 mps 724 mmHg 91%
    02:00 +5°C° 0 mm 3 mps 724 mmHg 91%
    03:00 +5°C° 0 mm 3 mps 724 mmHg 91%
    04:00 +4°C° 0 mm 3 mps 724 mmHg 91%
    05:00 +5°C° 0 mm 3 mps 725 mmHg 87%
    06:00 +5°C° 0 mm 4 mps 725 mmHg 84%
    07:00 +5°C° 0 mm 4 mps 726 mmHg 80%
    08:00 +7°C° 0 mm 4 mps 726 mmHg 74%
    09:00 +8°C° 0 mm 4 mps 726 mmHg 67%
    10:00 +10°C° 0 mm 4 mps 727 mmHg 60%
    11:00 +11°C° 0 mm 4 mps 727 mmHg 61%
    12:00 +10°C° 0 mm 5 mps 727 mmHg 62%
    13:00 +12°C° 0 mm 5 mps 727 mmHg 62%
    14:00 +12°C° 0.1 mm 5 mps 727 mmHg 64%
    15:00 +12°C° 0.1 mm 5 mps 727 mmHg 66%
    16:00 +11°C° 0.1 mm 4 mps 727 mmHg 68%
    17:00 +11°C° 0 mm 4 mps 727 mmHg 71%
    18:00 +10°C° 0 mm 4 mps 727 mmHg 74%
    19:00 +9°C° 0 mm 3 mps 727 mmHg 77%
    20:00 +9°C° 0 mm 3 mps 727 mmHg 80%
    21:00 +9°C° 0 mm 3 mps 727 mmHg 83%
    22:00 +8°C° 0 mm 3 mps 728 mmHg 86%
    23:00 +8°C° 0 mm 3 mps 727 mmHg 86%
    Show more